Погода в Лиеги

Латвия     56°34′44″N   21°20′03″E
темп.,
°C
ветер,
м/с
пор.,
м/с
влажн.,
%
обл.,
%
осадки,
мм/ч
давл.,
гПа
погр.,
м
5 марта, пт
пт523:00−1ссз23830 0.0 101598
02:00−1ссз386649 0.1 1015474
05:00−2с276126 0.0 1016309
08:00−2сз125713 0.0 101756
11:00+1зсз465229 0.1 10181359
14:00+2сз684864 0.8 10181630
17:000ссз6105188 0.3 10191715
20:00−2с496258 0.3 1022972
6 марта, сб
сб623:00−3с26640 0.0 1024305
02:00−3зсз22630 0.0 102657
05:00−2зсз266021 0.0 1025173
08:00−2зюз376025 0.0 1024237
11:00+2з695229 0.0 10231303
14:00+3зюз8125215 0.0 10211425
17:00+2зюз9165836 0.0 10171389
20:00+2зюз7137768 0.1 10131064
7 марта, вс
вс723:00+3з81579100 0.0 1009847
02:00+2сз71288100 0.1 1009775
05:000сз51064100 0.7 1010892
08:00−1зсз395499 0.7 1010695
11:00+1зсз71045100 0.0 10091829
14:00+2зсз9154186 0.0 10082428
17:00+1сз8144995 0.1 10082139
20:00−2ссз4115883 0.1 1010958
8 марта, пн
пн823:00−2сз411600 0.0 1011692
02:00−2ссз496940 0.0 10121051
05:00−3ссз598692 0.1 1012905
08:00−4с587494 0.3 10141042
11:00−2с686396 0.0 10171098
14:00−1с694865 0.1 10191409
17:00−3с68460 0.0 10201259
20:00−4ссв38560 0.0 1022801
9 марта, вт
вт923:00−5св265516 0.0 1024635
02:00−5ссв125538 0.0 1025196
05:00−5юз1154100 0.0 1026125
08:00−5ю2353100 0.0 1026177
11:00−2юз234095 0.0 1027573
14:000зюз444158 0.0 1027925
17:00−1юз45490 0.0 1026847
20:00−3юз37610 0.0 1027277